Regional Weather Roundup
Issued by NWS Spokane, WA

Home | Current Version | Previous Version | Text Only | Print | Product List | Glossary On
Versions: 1 2 3 4 5 6 7 8 9 10 11 12 13 14 15 16 17 18 19 20 21 22 23 24 25 26 27 28 29 30 31 32 33 34 35 36 37 38 39 40 41 42 43 44 45 46 47 48 49 50
911
NZUS01 KOTX 290810
RWROTX
EASTERN WASHINGTON/NORTHERN IDAHO ROUNDUP
NATIONAL WEATHER SERVICE, SPOKANE WA
100 AM PDT FRI JUL 29 2016

Note: "fair" indicated few or no clouds below 12,000 feet with no
significant weather and/or obstructions to visibility.

...NORTHEAST WASHINGTON AND NORTHERN IDAHO PANHANDLE...

CITY           SKY/WX    TMP DP  RH WIND       PRES   REMARKS
SPOKANE INTL   CLEAR     71  50  47 CALM      29.99S
SPOKANE DOWNTO CLEAR     68  52  56 CALM      29.98S
COEUR D ALENE  CLEAR     66  55  68 NE3       29.98S
DEER PARK      CLEAR     63  54  72 W5        29.99S
SANDPOINT      CLEAR     59  52  77 CALM      30.00S
BONNERS FERRY    N/A     66  54  63 CALM      30.03R

...SOUTHEAST WASHINGTON AND SOUTHERN IDAHO PANHANDLE...

CITY           SKY/WX    TMP DP  RH WIND       PRES   REMARKS
WALLA WALLA    CLEAR     79  50  36 E9        29.91S
PULLMAN/MOSCOW CLEAR     62  50  64 CALM      30.02S
LEWISTON       CLEAR     76  45  33 S6        29.93S
LOWELL           N/A     65  58  78 CALM      30.00S

...COLUMBIA BASIN...

CITY           SKY/WX    TMP DP  RH WIND       PRES   REMARKS
EPHRATA        CLEAR     82  48  30 NW9       29.91S
MOSES LAKE     CLEAR     74  53  48 CALM      29.92S
TRI CITIES     CLEAR     74  61  63 VRB3      29.88R
HERMISTON      CLEAR     74  50  42 CALM      29.88R
PENDLETON      CLEAR     73  46  38 SE9       29.93F

...EAST SLOPES CASCADES...

CITY           SKY/WX    TMP DP  RH WIND       PRES   REMARKS
THE DALLES     CLEAR     81  58  45 NW14      29.88S
YAKIMA         CLEAR     80  47  31 NW7       29.95R
ELLENSBURG     CLEAR     74  52  46 NW15      29.99S
STAMPEDE PASS  CLEAR     60  51  72 SW5       30.16F
WENATCHEE      CLEAR     79  53  40 NW12      29.95R
OMAK           CLEAR     78  52  40 NW8       29.95R

...SOUTHERN BRITISH COLUMBIA...

CITY           SKY/WX    TMP DP  RH WIND       PRES   REMARKS
PENTICTON      PTCLDY    68  54  60 N6        29.97S
CRANBROOK      CLEAR     68  46  45 W8        30.07R

...WESTERN MONTANA...

CITY           SKY/WX    TMP DP  RH WIND       PRES   REMARKS
MISSOULA       CLEAR     64  48  56 CALM      30.07S

...NEIGHBORING CITIES...

CITY           SKY/WX    TMP DP  RH WIND       PRES   REMARKS
SEATTLE        CLEAR     73  60  63 NE7       30.03S
CALGARY        PTCLDY    61  50  67 W3        30.12F



USA.gov is the U.S. government's official web portal to all federal, state and local government web resources and services.